Location: Newark
(52.4787°S, 179.0532°W)
Time: 09:33:40
(UTC+00:00)

M-CUBED/EXP-1 PRIME - Visible Passes

Search period start: 09 December 2019 00:00
Search period end: 19 December 2019 00:00
Orbit: 429 x 668 km, 101.7° (Epoch: 08 December)

Date Brightness Start Highest point End Pass type
(mag) Time Alt. Az. Time Alt. Az. Time Alt. Az.
13 Dec ? 14:35:10 10° ENE 14:37:42 19° SE 14:40:11 10° S visible
14 Dec ? 14:30:43 10° E 14:33:00 17° SE 14:35:14 10° SSE visible
15 Dec ? 14:26:20 10° E 14:28:19 15° SE 14:30:15 10° SSE visible
16 Dec ? 14:22:01 10° E 14:23:36 13° SE 14:25:12 10° SSE visible
17 Dec ? 14:17:50 10° ESE 14:18:55 11° SE 14:20:00 10° SSE visible
